DL6MAA-11 Weather Reports


time (UTC)temp
C
wind
direction
speed
KPH
gust
KPH
rain 1hr
cm
rain 24hr
cm
rain mn
cm
humidity
%
barometer
mb
20260905044149 17 333 1.6 0.0 0.00 0.00 0.00 63 1019.2
20260905043704 17 360 3.2 0.0 0.00 0.00 0.00 63 1019.2
20260905043155 17 336 4.8 0.0 0.00 0.00 0.00 63 1019.2
20260905042659 17 22 3.2 0.0 0.00 0.00 0.00 63 1019.0
20260905042202 17 28 3.2 0.0 0.00 0.00 0.00 65 1019.0
20260905041703 17 10 1.6 0.0 0.00 0.00 0.00 65 1019.0
20260905041208 17 24 1.6 0.0 0.00 0.00 0.00 65 1018.2
20260905040650 17 41 1.6 0.0 0.00 0.00 0.00 66 1018.2
20260905040208 17 60 3.2 0.0 0.00 0.00 0.00 66 1018.2
20260905035652 18 40 4.8 0.0 0.00 0.00 0.00 66 1017.9
20260905035157 18 43 4.8 0.0 0.00 0.00 0.00 66 1017.9
20260905034656 18 320 3.2 0.0 0.00 0.00 0.00 67 1017.9
20260905034205 18 52 3.2 0.0 0.00 0.00 0.00 67 1017.7
20260905033651 18 19 1.6 0.0 0.00 0.00 0.00 68 1017.7
20260905033154 18 19 3.2 0.0 0.00 0.00 0.00 68 1017.7
20260905032658 18 349 3.2 0.0 0.00 0.00 0.00 67 1017.0
20260905032159 18 10 1.6 0.0 0.00 0.00 0.00 68 1017.0
20260905031702 18 15 1.6 0.0 0.00 0.00 0.00 68 1017.0
20260905031204 18 40 0.0 0.0 0.00 0.00 0.00 69 1016.7
20260905030649 18 24 0.0 0.0 0.00 0.00 0.00 69 1016.7
20260905030201 18 360 0.0 0.0 0.00 0.00 0.00 68 1016.7
20260905025704 18 252 0.0 0.0 0.00 0.00 0.00 67 1017.3
20260905025149 18 252 0.0 0.0 0.00 0.00 0.00 66 1017.3
20260905024652 18 252 0.0 0.0 0.00 0.00 0.00 66 1017.3
20260905024155 19 252 0.0 0.0 0.00 0.00 0.00 66 1016.8
20260905023655 19 252 0.0 0.0 0.00 0.00 0.00 66 1016.8
20260905023205 19 252 0.0 0.0 0.00 0.00 0.00 65 1016.8
20260905022701 19 252 0.0 0.0 0.00 0.00 0.00 65 1016.8
20260905022154 20 252 0.0 0.0 0.00 0.00 0.00 64 1016.8
20260905021650 20 252 0.0 0.0 0.00 0.00 0.00 64 1016.8
20260905021155 20 252 0.0 0.0 0.00 0.00 0.00 63 1016.8
20260905020655 20 252 0.0 0.0 0.00 0.00 0.00 63 1016.8
20260905015705 20 252 0.0 0.0 0.00 0.00 0.00 63 1016.6
20260905015208 20 252 0.0 0.0 0.00 0.00 0.00 63 1016.6
20260905014651 20 360 0.0 0.0 0.00 0.00 0.00 63 1016.6
20260905014200 20 252 0.0 0.0 0.00 0.00 0.00 62 1016.3
20260905013659 21 262 0.0 0.0 0.00 0.00 0.00 62 1016.3
20260905013153 21 252 0.0 0.0 0.00 0.00 0.00 61 1016.3
20260905012655 21 252 0.0 0.0 0.00 0.00 0.00 61 1016.3
20260905012158 21 252 0.0 0.0 0.00 0.00 0.00 61 1016.3
20260905011657 21 248 1.6 0.0 0.00 0.00 0.00 61 1016.3
20260905011202 21 242 3.2 0.0 0.00 0.00 0.00 61 1016.3
20260905010708 21 286 1.6 0.0 0.00 0.00 0.00 61 1016.3
20260905010152 21 257 1.6 0.0 0.00 0.00 0.00 61 1016.3
20260905005653 21 255 1.6 0.0 0.00 0.00 0.00 61 1016.2
20260905005204 21 272 0.0 0.0 0.00 0.00 0.00 60 1016.2
20260905004651 21 236 0.0 0.0 0.00 0.00 0.00 60 1016.2
20260905004153 21 360 0.0 0.0 0.00 0.00 0.00 59 1016.1
20260905003651 22 232 0.0 0.0 0.00 0.00 0.00 59 1016.1
20260905003205 22 227 0.0 0.0 0.00 0.00 0.00 58 1016.1
20260905002651 22 276 0.0 0.0 0.00 0.00 0.00 58 1016.1
20260905002156 22 290 1.6 0.0 0.00 0.00 0.00 58 1016.1
20260905001659 22 315 1.6 0.0 0.00 0.00 0.00 57 1016.1
20260905001155 22 279 1.6 0.0 0.00 0.00 0.00 57 1016.0
20260905000649 22 294 1.6 0.0 0.00 0.00 0.00 56 1016.0
20260905000204 22 187 0.0 0.0 0.00 0.00 0.00 56 1016.0
20260904235705 22 239 0.0 0.0 0.00 0.00 0.00 56 1015.8
20260904235207 22 254 0.0 0.0 0.00 0.00 0.00 56 1015.8
20260904234652 22 191 0.0 0.0 0.00 0.00 0.00 56 1015.8
20260904234207 22 225 0.0 0.0 0.00 0.00 0.00 55 1015.6
20260904233708 22 190 0.0 0.0 0.00 0.00 0.00 55 1015.6
20260904233153 22 200 0.0 0.0 0.00 0.00 0.00 55 1015.6
20260904232701 22 217 0.0 0.0 0.00 0.00 0.00 55 1015.5
20260904232209 22 203 0.0 0.0 0.00 0.00 0.00 55 1015.5
20260904231653 22 360 0.0 0.0 0.00 0.00 0.00 55 1015.5
20260904231205 23 194 0.0 0.0 0.00 0.00 0.00 55 1015.6
20260904230700 23 131 1.6 0.0 0.00 0.00 0.00 55 1015.6
20260904230154 23 224 1.6 0.0 0.00 0.00 0.00 55 1015.6
20260904225649 23 192 1.6 0.0 0.00 0.00 0.00 55 1015.5
20260904225200 23 180 1.6 0.0 0.00 0.00 0.00 55 1015.5
20260904224701 23 215 0.0 0.0 0.00 0.00 0.00 54 1015.5
20260904224202 23 280 0.0 0.0 0.00 0.00 0.00 54 1015.5
20260904223706 23 169 0.0 0.0 0.00 0.00 0.00 55 1015.5
20260904223155 23 252 0.0 0.0 0.00 0.00 0.00 55 1015.5
20260904222702 23 200 0.0 0.0 0.00 0.00 0.00 55 1015.5
20260904222205 23 186 0.0 0.0 0.00 0.00 0.00 55 1015.5
20260904221709 22 157 0.0 0.0 0.00 0.00 0.00 55 1015.5
20260904221154 22 254 0.0 0.0 0.00 0.00 0.00 55 1015.6
20260904220659 22 236 0.0 0.0 0.00 0.00 0.00 55 1015.6
20260904220153 22 260 0.0 0.0 0.00 0.00 0.00 54 1015.6
20260904215659 22 215 0.0 0.0 0.00 0.00 0.00 54 1015.5
20260904215147 22 200 0.0 0.0 0.00 0.00 0.00 54 1015.5
20260904214656 23 222 0.0 0.0 0.00 0.00 0.00 54 1015.5
20260904214204 23 184 0.0 0.0 0.00 0.00 0.00 54 1015.4
20260904213702 23 161 0.0 0.0 0.00 0.00 0.00 54 1015.4
20260904213208 23 198 0.0 0.0 0.00 0.00 0.00 54 1015.4
20260904212659 23 360 0.0 0.0 0.00 0.00 0.00 54 1015.3
20260904212205 23 220 0.0 0.0 0.00 0.00 0.00 54 1015.3
20260904211648 23 159 0.0 0.0 0.00 0.00 0.00 53 1015.3
20260904211156 23 244 0.0 0.0 0.00 0.00 0.00 53 1014.5
20260904210705 23 138 0.0 0.0 0.00 0.00 0.00 53 1014.5
20260904210153 23 248 0.0 0.0 0.00 0.00 0.00 53 1014.5
20260904205701 23 204 0.0 0.0 0.00 0.00 0.00 52 1014.7
20260904205207 23 207 0.0 0.0 0.00 0.00 0.00 52 1014.7
20260904204709 23 210 0.0 0.0 0.00 0.00 0.00 52 1014.7
20260904204153 23 298 0.0 0.0 0.00 0.00 0.00 52 1014.7
20260904203659 23 200 0.0 0.0 0.00 0.00 0.00 52 1014.7
20260904203159 23 229 0.0 0.0 0.00 0.00 0.00 52 1014.7
20260904202705 23 132 0.0 0.0 0.00 0.00 0.00 52 1014.5
20260904202200 23 183 0.0 0.0 0.00 0.00 0.00 52 1014.5
20260904201705 23 164 1.6 0.0 0.00 0.00 0.00 52 1014.5
20260904201148 23 360 0.0 0.0 0.00 0.00 0.00 51 1014.7
20260904200651 23 252 0.0 0.0 0.00 0.00 0.00 51 1014.7
20260904200203 23 234 0.0 0.0 0.00 0.00 0.00 51 1014.7
20260904195651 23 360 0.0 0.0 0.00 0.00 0.00 51 1014.6
20260904195156 23 236 0.0 0.0 0.00 0.00 0.00 51 1014.6
20260904194656 23 360 0.0 0.0 0.00 0.00 0.00 50 1014.6
20260904194159 23 224 0.0 0.0 0.00 0.00 0.00 50 1014.6
20260904193706 23 158 0.0 0.0 0.00 0.00 0.00 50 1014.6
20260904193206 23 213 0.0 0.0 0.00 0.00 0.00 50 1014.6
20260904192658 23 192 0.0 0.0 0.00 0.00 0.00 50 1014.4
20260904192202 24 176 0.0 0.0 0.00 0.00 0.00 49 1014.4
20260904191654 24 200 0.0 0.0 0.00 0.00 0.00 49 1014.4
20260904191202 24 190 0.0 0.0 0.00 0.00 0.00 49 1014.4
20260904190703 24 360 0.0 0.0 0.00 0.00 0.00 49 1014.4
20260904190205 24 186 0.0 0.0 0.00 0.00 0.00 49 1014.4
20260904185648 24 186 0.0 0.0 0.00 0.00 0.00 49 1014.3
20260904185159 24 360 0.0 0.0 0.00 0.00 0.00 48 1014.3
20260904184701 25 69 0.0 0.0 0.00 0.00 0.00 48 1014.3
20260904184207 25 225 0.0 0.0 0.00 0.00 0.00 48 1014.2
20260904183659 25 208 0.0 0.0 0.00 0.00 0.00 48 1014.2
20260904183158 25 125 0.0 0.0 0.00 0.00 0.00 47 1014.2
20260904182704 25 239 0.0 0.0 0.00 0.00 0.00 46 1013.7
20260904182205 25 211 0.0 0.0 0.00 0.00 0.00 46 1013.7
20260904181652 25 257 0.0 0.0 0.00 0.00 0.00 46 1013.7
20260904181159 25 275 0.0 0.0 0.00 0.00 0.00 45 1013.9
20260904180705 25 223 0.0 0.0 0.00 0.00 0.00 45 1013.9
20260904180153 26 360 1.6 0.0 0.00 0.00 0.00 45 1013.9
20260904175648 26 198 0.0 0.0 0.00 0.00 0.00 44 1013.8
20260904175210 26 215 0.0 0.0 0.00 0.00 0.00 44 1013.8
20260904174658 26 203 1.6 0.0 0.00 0.00 0.00 44 1013.8
20260904174157 26 246 1.6 0.0 0.00 0.00 0.00 44 1013.6
20260904173659 26 177 1.6 0.0 0.00 0.00 0.00 43 1013.6
20260904173207 26 230 1.6 0.0 0.00 0.00 0.00 43 1013.6
20260904172657 26 275 1.6 0.0 0.00 0.00 0.00 43 1013.7
20260904172200 26 360 1.6 0.0 0.00 0.00 0.00 42 1013.7
20260904171702 26 252 1.6 0.0 0.00 0.00 0.00 42 1013.7
20260904171207 27 171 3.2 0.0 0.00 0.00 0.00 42 1013.5
20260904170710 27 292 3.2 0.0 0.00 0.00 0.00 42 1013.5
20260904170155 27 360 3.2 0.0 0.00 0.00 0.00 42 1013.5
20260904165706 27 246 1.6 0.0 0.00 0.00 0.00 42 1013.5
20260904165157 27 119 1.6 0.0 0.00 0.00 0.00 42 1013.5
20260904164700 27 360 3.2 0.0 0.00 0.00 0.00 42 1013.5
20260904164202 27 187 4.8 0.0 0.00 0.00 0.00 42 1013.5
20260904163708 27 360 6.4 0.0 0.00 0.00 0.00 42 1013.5
20260904163156 27 257 8.0 0.0 0.00 0.00 0.00 41 1013.5
20260904162654 27 360 8.0 0.0 0.00 0.00 0.00 41 1013.4
20260904162209 28 158 8.0 0.0 0.00 0.00 0.00 41 1013.4
20260904161701 28 360 6.4 0.0 0.00 0.00 0.00 40 1013.4
20260904161204 28 242 3.2 0.0 0.00 0.00 0.00 41 1013.3
20260904160652 28 142 3.2 0.0 0.00 0.00 0.00 39 1013.3
20260904160153 28 275 4.8 0.0 0.00 0.00 0.00 39 1013.3
20260904155653 28 360 3.2 0.0 0.00 0.00 0.00 39 1013.3
20260904155158 28 196 4.8 0.0 0.00 0.00 0.00 38 1013.3
20260904154709 28 194 6.4 0.0 0.00 0.00 0.00 38 1013.3
20260904154148 28 360 4.8 0.0 0.00 0.00 0.00 38 1013.4
20260904153659 29 360 3.2 0.0 0.00 0.00 0.00 39 1013.4
20260904153207 29 360 4.8 0.0 0.00 0.00 0.00 38 1013.4
20260904152709 29 169 8.0 0.0 0.00 0.00 0.00 38 1013.7
20260904152154 29 241 9.7 0.0 0.00 0.00 0.00 39 1013.7
20260904151706 29 360 6.4 0.0 0.00 0.00 0.00 37 1013.7
20260904151157 29 270 4.8 0.0 0.00 0.00 0.00 37 1013.6
20260904150652 29 227 4.8 0.0 0.00 0.00 0.00 37 1013.6
20260904150206 29 281 4.8 0.0 0.00 0.00 0.00 37 1013.6
20260904145701 29 186 4.8 0.0 0.00 0.00 0.00 37 1013.7
20260904145159 29 61 6.4 0.0 0.00 0.00 0.00 37 1013.7
20260904144701 29 276 4.8 0.0 0.00 0.00 0.00 37 1013.7
20260904144202 29 360 6.4 0.0 0.00 0.00 0.00 37 1013.8
20260904143655 29 360 4.8 0.0 0.00 0.00 0.00 37 1013.8
20260904143158 29 299 6.4 0.0 0.00 0.00 0.00 37 1013.8
20260904142703 29 138 11.3 0.0 0.00 0.00 0.00 38 1013.9
20260904142153 29 360 11.3 0.0 0.00 0.00 0.00 37 1013.9
20260904141656 28 275 11.3 0.0 0.00 0.00 0.00 38 1013.9
20260904141204 28 360 11.3 0.0 0.00 0.00 0.00 37 1014.2
20260904140707 28 245 12.9 0.0 0.00 0.00 0.00 38 1014.2
20260904140150 28 275 14.5 0.0 0.00 0.00 0.00 38 1014.2
20260904135711 28 156 11.3 0.0 0.00 0.00 0.00 38 1014.4
20260904135157 29 153 9.7 0.0 0.00 0.00 0.00 38 1014.4
20260904134709 29 360 9.7 0.0 0.00 0.00 0.00 36 1014.4
20260904134157 29 163 8.0 0.0 0.00 0.00 0.00 37 1014.4
20260904133703 29 217 6.4 0.0 0.00 0.00 0.00 37 1014.4
20260904133155 29 265 6.4 0.0 0.00 0.00 0.00 37 1014.4
20260904132657 29 304 4.8 0.0 0.00 0.00 0.00 37 1014.4
20260904132205 29 360 3.2 0.0 0.00 0.00 0.00 38 1014.4
20260904131652 29 187 3.2 0.0 0.00 0.00 0.00 38 1014.4
20260904131159 29 278 3.2 0.0 0.00 0.00 0.00 38 1014.6
20260904130705 28 184 3.2 0.0 0.00 0.00 0.00 38 1014.6
20260904130149 28 140 3.2 0.0 0.00 0.00 0.00 38 1014.6
20260904125657 28 0.0 0.0 0.00 0.00 0.00 38 1015.0
20260904125207 28 147 4.8 0.0 0.00 0.00 0.00 39 1015.0
20260904124653 28 186 4.8 0.0 0.00 0.00 0.00 38 1015.0
20260904124158 28 233 4.8 0.0 0.00 0.00 0.00 38 1015.3
20260904123704 28 217 3.2 0.0 0.00 0.00 0.00 38 1015.3
20260904123207 28 161 4.8 0.0 0.00 0.00 0.00 39 1015.3
20260904122650 28 148 4.8 0.0 0.00 0.00 0.00 38 1015.5
20260904122158 28 196 4.8 0.0 0.00 0.00 0.00 38 1015.5
20260904121700 28 200 6.4 0.0 0.00 0.00 0.00 39 1015.5
20260904121202 28 360 8.0 0.0 0.00 0.00 0.00 38 1015.9
20260904120710 28 236 12.9 0.0 0.00 0.00 0.00 39 1015.9
20260904120153 27 281 12.9 0.0 0.00 0.00 0.00 38 1015.9
20260904115658 28 284 8.0 0.0 0.00 0.00 0.00 37 1015.7
20260904115201 28 217 4.8 0.0 0.00 0.00 0.00 39 1015.7
20260904114711 28 267 3.2 0.0 0.00 0.00 0.00 40 1015.7
20260904114154 28 360 4.8 0.0 0.00 0.00 0.00 40 1015.9
20260904113652 27 360 4.8 0.0 0.00 0.00 0.00 40 1015.9
20260904113204 28 360 4.8 0.0 0.00 0.00 0.00 40 1015.9
20260904112707 27 175 6.4 0.0 0.00 0.00 0.00 41 1016.4
20260904112153 27 168 9.7 0.0 0.00 0.00 0.00 41 1016.4
20260904111659 27 304 6.4 0.0 0.00 0.00 0.00 41 1016.4
20260904111201 27 214 4.8 0.0 0.00 0.00 0.00 42 1016.8
20260904110703 27 176 8.0 0.0 0.00 0.00 0.00 42 1016.8
20260904110204 27 360 6.4 0.0 0.00 0.00 0.00 41 1016.8
20260904105652 27 271 3.2 0.0 0.00 0.00 0.00 41 1017.0
20260904105202 27 169 3.2 0.0 0.00 0.00 0.00 41 1017.0
20260904104704 27 360 4.8 0.0 0.00 0.00 0.00 41 1017.0
20260904104156 26 194 11.3 0.0 0.00 0.00 0.00 43 1017.4
20260904103657 26 360 14.5 0.0 0.00 0.00 0.00 41 1017.4
20260904103159 27 265 9.7 0.0 0.00 0.00 0.00 41 1017.4
20260904102704 26 300 9.7 0.0 0.00 0.00 0.00 43 1017.6
20260904102210 26 315 8.0 0.0 0.00 0.00 0.00 43 1017.6
20260904101652 26 213 4.8 0.0 0.00 0.00 0.00 43 1017.6
20260904101156 26 290 4.8 0.0 0.00 0.00 0.00 43 1017.8
20260904100707 26 180 4.8 0.0 0.00 0.00 0.00 43 1017.8
20260904100210 26 274 8.0 0.0 0.00 0.00 0.00 44 1017.8
20260904095656 26 175 9.7 0.0 0.00 0.00 0.00 43 1018.1
20260904095158 26 288 6.4 0.0 0.00 0.00 0.00 44 1018.1
20260904094702 26 141 4.8 0.0 0.00 0.00 0.00 44 1018.1
20260904094206 26 360 3.2 0.0 0.00 0.00 0.00 45 1018.4
20260904093706 25 227 3.2 0.0 0.00 0.00 0.00 44 1018.4
20260904093154 25 180 4.8 0.0 0.00 0.00 0.00 45 1018.4
20260904092655 25 105 4.8 0.0 0.00 0.00 0.00 46 1018.7
20260904092200 25 245 4.8 0.0 0.00 0.00 0.00 47 1018.7
20260904091654 25 283 6.4 0.0 0.00 0.00 0.00 47 1018.7
20260904091155 25 218 4.8 0.0 0.00 0.00 0.00 46 1018.9
20260904090658 25 360 1.6 0.0 0.00 0.00 0.00 47 1018.9
20260904090205 24 181 3.2 0.0 0.00 0.00 0.00 48 1018.9
20260904085653 24 182 4.8 0.0 0.00 0.00 0.00 48 1018.9
20260904085200 23 269 3.2 0.0 0.00 0.00 0.00 49 1018.9
20260904084701 23 255 3.2 0.0 0.00 0.00 0.00 49 1018.9
20260904084211 23 205 3.2 0.0 0.00 0.00 0.00 50 1018.1
20260904083709 23 161 4.8 0.0 0.00 0.00 0.00 51 1018.1
20260904083154 23 232 6.4 0.0 0.00 0.00 0.00 51 1018.1
20260904082659 23 286 4.8 0.0 0.00 0.00 0.00 50 1018.1
20260904082205 23 277 3.2 0.0 0.00 0.00 0.00 51 1018.1
20260904081704 22 275 1.6 0.0 0.00 0.00 0.00 52 1018.1
20260904081206 22 210 1.6 0.0 0.00 0.00 0.00 52 1018.2
20260904080655 22 171 1.6 0.0 0.00 0.00 0.00 52 1018.2
20260904080211 22 269 3.2 0.0 0.00 0.00 0.00 53 1018.2
20260904075653 22 260 3.2 0.0 0.00 0.00 0.00 54 1018.4
20260904075201 22 360 3.2 0.0 0.00 0.00 0.00 54 1018.4
20260904074703 21 275 3.2 0.0 0.00 0.00 0.00 55 1018.4
20260904074154 21 202 3.2 0.0 0.00 0.00 0.00 55 1018.6
20260904073706 21 213 3.2 0.0 0.00 0.00 0.00 55 1018.6
20260904073157 21 360 1.6 0.0 0.00 0.00 0.00 57 1018.6
20260904072703 20 238 1.6 0.0 0.00 0.00 0.00 59 1018.8
20260904072211 20 360 1.6 0.0 0.00 0.00 0.00 60 1018.8
20260904071656 20 178 1.6 0.0 0.00 0.00 0.00 60 1018.8
20260904071154 19 360 1.6 0.0 0.00 0.00 0.00 60 1018.7
20260904070709 19 269 1.6 0.0 0.00 0.00 0.00 62 1018.7
20260904070153 18 283 1.6 0.0 0.00 0.00 0.00 63 1018.7
20260904065706 18 209 0.0 0.0 0.00 0.00 0.00 65 1018.7
20260904065207 18 198 0.0 0.0 0.00 0.00 0.00 66 1018.7
20260904064656 18 196 0.0 0.0 0.00 0.00 0.00 67 1018.7
20260904064202 17 360 0.0 0.0 0.00 0.00 0.00 66 1018.8
20260904063708 17 192 0.0 0.0 0.00 0.00 0.00 67 1018.8
20260904063211 17 190 0.0 0.0 0.00 0.00 0.00 67 1018.8
20260904062659 17 182 0.0 0.0 0.00 0.00 0.00 67 1018.8
20260904062204 17 217 0.0 0.0 0.00 0.00 0.00 67 1018.8
20260904061653 17 176 0.0 0.0 0.00 0.00 0.00 67 1018.8
20260904061157 17 185 0.0 0.0 0.00 0.00 0.00 68 1018.8
20260904060706 16 214 0.0 0.0 0.00 0.00 0.00 68 1018.8
20260904060150 16 360 0.0 0.0 0.00 0.00 0.00 68 1018.8
20260904055653 16 199 0.0 0.0 0.00 0.00 0.00 68 1018.9
20260904055204 16 199 0.0 0.0 0.00 0.00 0.00 68 1018.9
20260904054659 16 197 0.0 0.0 0.00 0.00 0.00 67 1018.9
20260904054153 16 360 0.0 0.0 0.00 0.00 0.00 66 1018.8
20260904053707 16 196 0.0 0.0 0.00 0.00 0.00 66 1018.8
20260904053156 17 197 0.0 0.0 0.00 0.00 0.00 65 1018.8
20260904052658 17 202 0.0 0.0 0.00 0.00 0.00 65 1018.9
20260904052200 17 196 0.0 0.0 0.00 0.00 0.00 65 1018.9
20260904051711 17 196 0.0 0.0 0.00 0.00 0.00 65 1018.9
20260904051156 17 197 0.0 0.0 0.00 0.00 0.00 65 1018.7
20260904050659 17 196 0.0 0.0 0.00 0.00 0.00 64 1018.7
20260904050207 17 198 0.0 0.0 0.00 0.00 0.00 64 1018.7
20260904045650 17 196 0.0 0.0 0.00 0.00 0.00 65 1018.7
20260904045150 17 360 0.0 0.0 0.00 0.00 0.00 64 1018.7
20260904044658 17 205 0.0 0.0 0.00 0.00 0.00 64 1018.7